When you browse on this site, cookies collect data to enhance your experience and personalize the content and advertising you see.
Visit our Privacy Policy to learn more. By continuing to use the site, you agree to this use of cookies and data.
  • în România
  • Lista ţărilor
  • Pe 7 zile
  • Temperatura apei
  • Hartă satelitară
  • Meteo pe hartă
  • Widget-uri
  • user-avatar
    Intrare

    Meteo pe oră la Luanda

    Astăzi, 24 Iunie, Luni

    Timp Temperatura Precipitaţii Vânt Presiune Umiditate
    00:00 +20°C° 0 mm 3 m/s 756 mmHg 95%
    01:00 +20°C° 0 mm 3 m/s 756 mmHg 97%
    02:00 +20°C° 0 mm 2 m/s 755 mmHg 95%
    03:00 +21°C° 0 mm 2 m/s 755 mmHg 92%
    04:00 +21°C° 0 mm 2 m/s 755 mmHg 90%
    05:00 +23°C° 0 mm 2 m/s 755 mmHg 87%
    06:00 +23°C° 0 mm 2 m/s 756 mmHg 84%
    07:00 +23°C° 0 mm 2 m/s 756 mmHg 81%
    08:00 +24°C° 0 mm 2 m/s 756 mmHg 77%
    09:00 +24°C° 0 mm 2 m/s 756 mmHg 73%
    10:00 +25°C° 0 mm 2 m/s 756 mmHg 69%
    11:00 +27°C° 0 mm 3 m/s 756 mmHg 60%
    12:00 +30°C° 0 mm 3 m/s 755 mmHg 51%
    13:00 +33°C° 0 mm 3 m/s 755 mmHg 42%
    14:00 +32°C° 0 mm 4 m/s 754 mmHg 47%
    15:00 +30°C° 0 mm 5 m/s 754 mmHg 52%
    16:00 +28°C° 0 mm 6 m/s 753 mmHg 57%
    17:00 +26°C° 0 mm 6 m/s 753 mmHg 66%
    18:00 +24°C° 0 mm 6 m/s 754 mmHg 74%
    19:00 +22°C° 0 mm 6 m/s 754 mmHg 83%
    20:00 +21°C° 0 mm 5 m/s 755 mmHg 86%
    21:00 +21°C° 0 mm 5 m/s 755 mmHg 90%
    22:00 +20°C° 0 mm 4 m/s 755 mmHg 93%
    23:00 +20°C° 0 mm 4 m/s 755 mmHg 94%

    Mâine, 25 Iunie, Marţi

    Timp Temperatura Precipitaţii Vânt Presiune Umiditate
    00:00 +19°C° 0 mm 3 m/s 755 mmHg 95%
    01:00 +19°C° 0 mm 2 m/s 755 mmHg 96%
    02:00 +19°C° 0 mm 2 m/s 755 mmHg 96%
    03:00 +19°C° 0 mm 2 m/s 755 mmHg 96%
    04:00 +19°C° 0 mm 2 m/s 755 mmHg 96%
    05:00 +19°C° 0 mm 2 m/s 755 mmHg 92%
    06:00 +20°C° 0 mm 3 m/s 755 mmHg 88%
    07:00 +21°C° 0 mm 3 m/s 756 mmHg 84%
    08:00 +22°C° 0 mm 3 m/s 756 mmHg 76%
    09:00 +24°C° 0 mm 3 m/s 756 mmHg 69%
    10:00 +26°C° 0 mm 2 m/s 756 mmHg 61%
    11:00 +28°C° 0 mm 3 m/s 756 mmHg 54%
    12:00 +30°C° 0 mm 4 m/s 755 mmHg 47%
    13:00 +33°C° 0 mm 4 m/s 754 mmHg 39%
    14:00 +30°C° 0 mm 5 m/s 754 mmHg 45%
    15:00 +29°C° 0 mm 6 m/s 753 mmHg 50%
    16:00 +28°C° 0 mm 6 m/s 753 mmHg 56%
    17:00 +26°C° 0 mm 6 m/s 753 mmHg 65%
    18:00 +23°C° 0 mm 6 m/s 754 mmHg 75%
    19:00 +21°C° 0 mm 5 m/s 754 mmHg 84%
    20:00 +21°C° 0 mm 5 m/s 755 mmHg 88%
    21:00 +20°C° 0 mm 5 m/s 755 mmHg 91%
    22:00 +20°C° 0 mm 4 m/s 756 mmHg 94%
    23:00 +20°C° 0 mm 4 m/s 756 mmHg 90%

    Poimâine, 26 Iunie, Miercuri

    Timp Temperatura Precipitaţii Vânt Presiune Umiditate
    00:00 +21°C° 0 mm 4 m/s 756 mmHg 86%
    01:00 +22°C° 0 mm 3 m/s 756 mmHg 83%
    02:00 +22°C° 0 mm 3 m/s 756 mmHg 80%
    03:00 +22°C° 0 mm 3 m/s 756 mmHg 78%
    04:00 +22°C° 0 mm 3 m/s 756 mmHg 75%
    05:00 +23°C° 0 mm 2 m/s 756 mmHg 75%
    06:00 +21°C° 0 mm 2 m/s 756 mmHg 75%
    07:00 +21°C° 0 mm 2 m/s 757 mmHg 75%
    08:00 +24°C° 0 mm 2 m/s 757 mmHg 68%
    09:00 +25°C° 0 mm 2 m/s 757 mmHg 61%
    10:00 +27°C° 0 mm 2 m/s 757 mmHg 54%
    11:00 +28°C° 0 mm 3 m/s 757 mmHg 50%
    12:00 +29°C° 0 mm 4 m/s 756 mmHg 47%
    13:00 +30°C° 0 mm 5 m/s 756 mmHg 43%
    14:00 +29°C° 0 mm 5 m/s 755 mmHg 47%
    15:00 +28°C° 0 mm 5 m/s 755 mmHg 51%
    16:00 +27°C° 0 mm 6 m/s 754 mmHg 55%
    17:00 +26°C° 0 mm 5 m/s 755 mmHg 63%
    18:00 +23°C° 0 mm 5 m/s 755 mmHg 72%
    19:00 +21°C° 0 mm 4 m/s 756 mmHg 80%
    20:00 +20°C° 0 mm 4 m/s 756 mmHg 83%
    21:00 +20°C° 0 mm 4 m/s 756 mmHg 87%
    22:00 +19°C° 0 mm 4 m/s 757 mmHg 90%
    23:00 +19°C° 0 mm 4 m/s 757 mmHg 91%

    27 Iunie, Joi

    Timp Temperatura Precipitaţii Vânt Presiune Umiditate
    00:00 +19°C° 0 mm 4 m/s 757 mmHg 92%
    01:00 +18°C° 0 mm 4 m/s 756 mmHg 94%
    02:00 +19°C° 0 mm 3 m/s 756 mmHg 91%
    03:00 +19°C° 0 mm 3 m/s 756 mmHg 89%
    04:00 +20°C° 0 mm 3 m/s 756 mmHg 86%
    05:00 +20°C° 0 mm 3 m/s 756 mmHg 85%
    06:00 +20°C° 0 mm 3 m/s 757 mmHg 84%
    07:00 +20°C° 0 mm 3 m/s 757 mmHg 83%
    08:00 +21°C° 0 mm 3 m/s 757 mmHg 76%
    09:00 +24°C° 0 mm 2 m/s 757 mmHg 69%
    10:00 +25°C° 0 mm 2 m/s 757 mmHg 62%
    11:00 +27°C° 0 mm 3 m/s 757 mmHg 57%
    12:00 +28°C° 0 mm 3 m/s 756 mmHg 53%
    13:00 +29°C° 0 mm 4 m/s 756 mmHg 48%
    14:00 +29°C° 0 mm 4 m/s 755 mmHg 50%
    15:00 +28°C° 0 mm 5 m/s 755 mmHg 53%
    16:00 +28°C° 0 mm 6 m/s 754 mmHg 55%
    17:00 +26°C° 0 mm 6 m/s 755 mmHg 63%
    18:00 +23°C° 0 mm 6 m/s 755 mmHg 71%
    19:00 +21°C° 0 mm 6 m/s 755 mmHg 79%
    20:00 +21°C° 0 mm 5 m/s 756 mmHg 82%
    21:00 +20°C° 0 mm 5 m/s 756 mmHg 86%
    22:00 +20°C° 0 mm 5 m/s 757 mmHg 89%
    23:00 +19°C° 0 mm 4 m/s 757 mmHg 90%

    28 Iunie, Vineri

    Timp Temperatura Precipitaţii Vânt Presiune Umiditate
    00:00 +19°C° 0 mm 4 m/s 757 mmHg 91%
    01:00 +19°C° 0 mm 4 m/s 757 mmHg 93%
    02:00 +19°C° 0 mm 4 m/s 756 mmHg 89%
    03:00 +20°C° 0 mm 3 m/s 756 mmHg 85%
    04:00 +21°C° 0 mm 3 m/s 756 mmHg 81%
    05:00 +21°C° 0 mm 3 m/s 756 mmHg 81%
    06:00 +21°C° 0 mm 3 m/s 756 mmHg 80%
    07:00 +21°C° 0 mm 3 m/s 756 mmHg 79%
    08:00 +22°C° 0 mm 3 m/s 756 mmHg 73%
    09:00 +24°C° 0 mm 3 m/s 757 mmHg 67%
    10:00 +25°C° 0 mm 3 m/s 757 mmHg 60%
    11:00 +27°C° 0 mm 3 m/s 756 mmHg 54%
    12:00 +29°C° 0 mm 3 m/s 755 mmHg 48%
    13:00 +31°C° 0 mm 3 m/s 755 mmHg 41%
    14:00 +30°C° 0 mm 4 m/s 754 mmHg 47%
    15:00 +28°C° 0 mm 5 m/s 754 mmHg 53%
    16:00 +27°C° 0 mm 6 m/s 754 mmHg 59%
    17:00 +24°C° 0 mm 6 m/s 754 mmHg 66%
    18:00 +23°C° 0 mm 6 m/s 754 mmHg 73%
    19:00 +21°C° 0 mm 5 m/s 755 mmHg 80%
    20:00 +21°C° 0 mm 5 m/s 755 mmHg 83%
    21:00 +20°C° 0 mm 5 m/s 756 mmHg 86%
    22:00 +20°C° 0 mm 4 m/s 757 mmHg 90%
    23:00 +20°C° 0 mm 4 m/s 756 mmHg 91%

    29 Iunie, Sâmbătă

    Timp Temperatura Precipitaţii Vânt Presiune Umiditate
    00:00 +19°C° 0 mm 3 m/s 756 mmHg 92%
    01:00 +19°C° 0 mm 3 m/s 756 mmHg 93%
    02:00 +19°C° 0 mm 3 m/s 756 mmHg 91%
    03:00 +20°C° 0 mm 3 m/s 756 mmHg 89%
    04:00 +20°C° 0 mm 3 m/s 756 mmHg 87%
    05:00 +20°C° 0 mm 2 m/s 756 mmHg 85%
    06:00 +20°C° 0 mm 2 m/s 756 mmHg 84%
    07:00 +21°C° 0 mm 2 m/s 757 mmHg 82%
    08:00 +23°C° 0 mm 2 m/s 757 mmHg 75%
    09:00 +24°C° 0 mm 2 m/s 757 mmHg 68%
    10:00 +26°C° 0 mm 1 m/s 757 mmHg 61%
    11:00 +27°C° 0 mm 2 m/s 757 mmHg 56%
    12:00 +29°C° 0 mm 3 m/s 756 mmHg 51%
    13:00 +30°C° 0 mm 3 m/s 755 mmHg 45%
    14:00 +29°C° 0 mm 4 m/s 754 mmHg 50%
    15:00 +28°C° 0 mm 5 m/s 754 mmHg 54%
    16:00 +28°C° 0 mm 6 m/s 753 mmHg 58%
    17:00 +26°C° 0 mm 6 m/s 754 mmHg 67%
    18:00 +23°C° 0 mm 5 m/s 754 mmHg 75%
    19:00 +21°C° 0 mm 5 m/s 755 mmHg 84%
    20:00 +21°C° 0 mm 5 m/s 755 mmHg 87%
    21:00 +20°C° 0 mm 4 m/s 756 mmHg 90%
    22:00 +20°C° 0 mm 4 m/s 756 mmHg 92%
    23:00 +20°C° 0 mm 4 m/s 756 mmHg 93%
    Arată mai mult